DW6632 Weather Reports


time (UTC)temp
F
wind
direction
speed
knots
gust
knots
rain 1hr
in
rain 24hr
in
rain mn
in
humidity
%
barometer
mb
20260510161705 73 0 0.0 0.0 0.00 0.00 0.00 55 1009.8
20260510160705 73 13 0.9 2.6 0.00 0.00 0.00 55 1009.9
20260510160205 73 18 0.9 6.1 0.00 0.00 0.00 56 1010.0
20260510154705 73 348 1.7 2.6 0.00 0.00 0.00 55 1010.0
20260510154205 73 254 1.7 2.6 0.00 0.00 0.00 55 1009.9
20260510153704 73 221 1.7 6.1 0.00 0.00 0.00 56 1010.0
20260510153205 73 304 1.7 8.7 0.00 0.00 0.00 55 1009.9
20260510151705 75 271 1.7 11.3 0.00 0.00 0.00 53 1009.9
20260510151205 76 255 7.0 11.3 0.00 0.00 0.00 51 1009.9
20260510150704 76 275 1.7 5.2 0.00 0.00 0.00 48 1009.8
20260510150205 76 353 1.7 2.6 0.00 0.00 0.00 48 1009.8
20260510144705 76 202 0.9 2.6 0.00 0.00 0.00 47 1009.9
20260510144204 75 184 0.9 5.2 0.00 0.00 0.00 47 1010.0
20260510143705 75 172 2.6 5.2 0.00 0.00 0.00 48 1010.2
20260510143205 75 172 2.6 7.0 0.00 0.00 0.00 50 1010.2
20260510141705 77 117 1.7 4.3 0.00 0.00 0.00 46 1010.2
20260510141204 77 171 1.7 6.1 0.00 0.00 0.00 43 1010.3
20260510134705 77 93 1.7 2.6 0.00 0.00 0.00 45 1010.8
20260510134205 77 121 1.7 2.6 0.00 0.00 0.00 44 1010.9
20260510133705 77 160 0.9 2.6 0.00 0.00 0.00 45 1010.9
20260510133204 77 112 1.7 5.2 0.00 0.00 0.00 45 1011.0
20260510131705 76 250 1.7 6.1 0.00 0.00 0.00 40 1011.3
20260510130705 76 258 2.6 5.2 0.00 0.00 0.00 39 1011.4
20260510130205 76 276 4.3 11.3 0.00 0.00 0.00 39 1011.6
20260510124705 76 266 2.6 7.0 0.00 0.00 0.00 39 1011.9
20260510123704 76 271 3.5 6.1 0.00 0.00 0.00 39 1012.0
20260510123204 76 256 1.7 10.4 0.00 0.00 0.00 40 1012.1
20260510121704 76 277 2.6 10.4 0.00 0.04 0.00 40 1012.2
20260510121205 76 249 5.2 8.7 0.00 0.06 0.00 39 1012.3
20260510120204 76 255 3.5 11.3 0.00 0.09 0.00 40 1012.4
20260510114205 75 287 1.7 7.8 0.00 0.18 0.00 41 1012.6
20260510113705 76 256 5.2 8.7 0.00 0.21 0.00 40 1012.7
20260510113205 76 271 4.3 11.3 0.00 0.25 0.00 42 1012.8
20260510111705 75 244 3.5 8.7 0.00 0.51 0.00 43 1012.9
20260510111205 74 226 6.1 8.7 0.00 0.56 0.00 43 1013.0
20260510110705 75 239 4.3 8.7 0.00 0.64 0.00 44 1013.1
20260510104705 73 54 1.7 4.3 0.00 0.73 0.00 51 1013.3
20260510101204 72 86 0.9 2.6 0.00 0.83 0.00 52 1013.8
20260510100705 72 124 1.7 2.6 0.00 0.83 0.00 53 1013.8
20260510094705 71 43 1.7 2.6 0.00 0.88 0.00 55 1014.0
20260510094205 70 261 1.7 5.2 0.00 0.90 0.00 55 1014.0
20260510093704 70 328 1.7 7.8 0.00 0.91 0.00 56 1014.1
20260510093204 69 238 0.9 6.1 0.00 0.97 0.00 56 1014.1
20260510091704 69 279 2.6 5.2 0.00 0.99 0.00 58 1014.2
20260510090704 69 81 0.0 0.0 0.00 1.00 0.00 61 1014.3
20260510090204 68 170 0.0 4.3 0.00 1.02 0.00 62 1014.3
20260510084705 69 332 0.0 0.0 0.00 1.11 0.00 65 1014.4
20260510084205 69 83 0.0 0.0 0.00 1.14 0.00 65 1014.5
20260510083705 68 84 0.0 0.0 0.00 1.17 0.00 66 1014.5
20260510083205 68 83 0.0 0.0 0.00 1.20 0.00 67 1014.7
20260510081704 66 83 0.0 0.0 0.00 1.26 0.00 72 1014.7
20260510081204 66 84 0.0 0.0 0.00 1.28 0.00 73 1014.7
20260510080704 65 34 0.0 0.0 0.00 1.31 0.00 73 1014.7
20260510080205 65 34 0.0 0.0 0.00 1.33 0.00 73 1014.7
20260510074705 64 37 0.0 0.0 0.00 1.42 0.00 75 1014.9
20260510074205 63 37 0.0 0.0 0.00 1.45 0.00 78 1014.9
20260510073704 62 36 0.0 0.0 0.00 1.48 0.00 80 1014.9
20260510073205 62 36 0.0 0.0 0.00 1.52 0.00 79 1015.0
20260510071706 60 5 0.0 0.0 0.00 1.61 0.00 86 1015.0
20260510071205 59 5 0.0 1.7 0.00 1.64 0.00 87 1015.0
20260510070705 59 5 1.7 2.6 0.00 1.65 0.00 87 1014.9
20260510064205 57 311 0.0 0.0 0.00 1.66 0.00 89 1014.7
20260510063704 57 311 0.0 0.0 0.00 1.66 0.00 89 1014.7
20260510061705 57 311 0.0 0.0 0.00 1.66 0.00 89 1014.5
20260510061205 57 311 0.0 0.0 0.00 1.66 0.00 89 1014.5
20260510060705 56 311 0.0 0.0 0.00 1.66 0.00 88 1014.5
20260510060205 56 311 0.0 1.7 0.00 1.66 0.00 88 1014.5
20260510054705 57 254 0.0 0.0 0.00 1.66 0.00 88 1014.4
20260510054204 57 249 0.0 0.0 0.00 1.66 0.00 88 1014.3
20260510053705 57 242 0.0 0.9 0.00 1.66 0.00 88 1014.3
20260510053204 56 242 1.7 2.6 0.00 1.66 0.00 89 1014.2
20260510051705 56 134 0.0 0.0 0.00 1.66 0.00 88 1014.1
20260510050704 56 134 0.0 1.7 0.00 1.66 0.00 88 1014.0
20260510044704 56 146 1.7 2.6 0.00 1.66 0.00 88 1013.9
20260510044205 56 324 0.9 1.7 0.00 1.66 0.00 88 1013.9
20260510043704 57 300 0.9 2.6 0.00 1.66 0.00 88 1013.9
20260510043204 57 274 1.7 4.3 0.00 1.66 0.00 89 1014.0
20260510041704 56 240 2.6 5.2 0.00 1.66 0.00 91 1013.9
20260510041205 56 195 1.7 5.2 0.00 1.66 0.00 91 1013.9
20260510040204 56 54 0.0 0.0 0.00 1.66 0.00 91 1014.0
20260510034704 56 46 0.0 0.0 0.00 1.66 0.00 91 1013.9
20260510034204 56 46 0.0 0.0 0.00 1.66 0.00 91 1013.9
20260510033704 56 46 0.0 0.0 0.00 1.66 0.00 91 1013.8
20260510033204 56 46 0.0 0.0 0.00 1.66 0.00 91 1013.8
20260510031705 56 46 0.0 0.0 0.00 1.66 0.00 91 1013.8
20260510031204 56 46 0.0 0.0 0.00 1.66 0.00 91 1013.6
20260510030704 56 46 0.9 1.7 0.00 1.66 0.00 91 1013.6
20260510030204 56 46 1.7 2.6 0.00 1.66 0.00 91 1013.5
20260510024704 56 159 0.0 0.0 0.00 1.66 0.00 91 1013.6
20260510023705 56 159 0.0 0.0 0.00 1.66 0.00 91 1013.6
20260510023205 56 159 0.0 1.7 0.00 1.66 0.00 90 1013.6
20260510021705 56 173 0.0 1.7 0.00 1.66 0.00 90 1013.6
20260510021204 56 221 0.0 0.9 0.00 1.66 0.00 90 1013.6
20260510020705 56 194 0.0 1.7 0.00 1.66 0.00 90 1013.6
20260510020204 57 145 0.0 0.0 0.00 1.66 0.00 90 1013.6
20260510014205 57 241 0.0 0.0 0.00 1.66 0.00 89 1013.5
20260510013705 57 241 0.0 0.0 0.00 1.66 0.00 89 1013.6
20260510013205 57 241 0.0 0.0 0.00 1.66 0.00 89 1013.6
20260510011705 57 240 0.0 0.0 0.00 1.66 0.00 88 1013.7
20260510011205 58 240 0.0 0.0 0.00 1.66 0.00 88 1013.8
20260510010704 58 240 0.0 0.0 0.00 1.66 0.00 88 1013.8
20260510010204 58 241 0.0 0.0 0.00 1.66 0.00 87 1013.8
20260510004705 58 241 0.0 0.0 0.00 1.66 0.00 87 1014.0
20260510004204 58 241 0.0 0.0 0.00 1.66 0.00 87 1014.1
20260510003704 58 241 0.0 0.0 0.00 1.66 0.00 87 1014.1
20260510003204 58 166 0.0 1.7 0.00 1.66 0.00 87 1014.1
20260510001705 58 271 0.9 2.6 0.00 1.66 0.00 87 1014.4
20260510000704 58 300 0.0 0.0 0.00 1.66 0.00 87 1014.5
20260510000205 58 301 0.0 0.0 0.00 1.66 0.00 87 1014.4
20260509234705 59 325 0.0 0.0 0.00 1.66 0.00 86 1014.4
20260509234204 59 47 0.0 0.0 0.00 1.66 0.00 86 1014.4
20260509233705 59 347 0.0 0.0 0.00 1.66 0.00 85 1014.4
20260509233205 59 329 0.0 0.0 0.00 1.66 0.00 85 1014.4
20260509231205 59 322 0.0 2.6 0.00 1.66 0.00 84 1014.6
20260509230704 59 330 0.0 1.7 0.00 1.66 0.00 84 1014.6
20260509230204 59 330 0.0 4.3 0.00 1.66 0.00 84 1014.5
20260509224704 60 5 1.7 2.6 0.00 1.66 0.00 81 1014.5
20260509223705 59 181 1.7 2.6 0.00 1.66 0.00 82 1014.5
20260509223204 59 154 1.7 2.6 0.00 1.66 0.00 83 1014.5
20260509221204 60 206 2.6 4.3 0.00 1.66 0.00 87 1014.8
20260509220705 60 261 2.6 2.6 0.00 1.66 0.00 87 1014.9
20260509220204 60 279 2.6 7.8 0.00 1.66 0.00 87 1015.0
20260509214705 61 236 0.9 2.6 0.00 1.66 1.66 87 1014.8
20260509214204 61 200 0.0 0.0 0.00 1.66 1.66 87 1014.6
20260509213704 61 199 0.0 0.0 0.00 1.66 1.66 87 1014.5
20260509213204 61 199 0.0 2.6 0.00 1.66 1.66 87 1014.3
20260509211705 61 328 0.0 2.6 0.00 1.66 1.66 87 1014.2
20260509211205 61 257 0.9 2.6 0.00 1.66 1.66 87 1014.1
20260509210704 61 224 1.7 4.3 0.00 1.66 1.66 87 1013.8
20260509210204 61 144 0.0 1.7 0.00 1.66 1.66 87 1013.8
20260509204705 61 197 0.9 2.6 0.00 1.66 1.66 87 1014.4
20260509203705 61 246 2.6 7.0 0.00 1.66 1.66 86 1014.8
20260509201704 62 255 2.6 2.6 0.00 1.66 1.66 86 1014.2
20260509201205 62 318 0.0 0.0 0.00 1.66 1.66 86 1013.9
20260509200204 62 318 0.0 2.6 0.00 1.66 1.66 85 1013.8
20260509194704 62 346 0.0 0.0 0.00 1.66 1.66 85 1013.5
20260509193705 62 348 0.0 0.0 0.00 1.66 1.66 84 1013.4
20260509191705 62 42 0.0 0.0 0.00 1.66 1.66 82 1012.8
20260509190705 63 42 0.0 0.0 0.00 1.66 1.66 81 1012.5
20260509190205 63 42 0.0 0.0 0.00 1.66 1.66 80 1012.5
20260509184704 64 40 0.0 0.0 0.00 1.66 1.66 77 1012.5
20260509184205 64 40 0.0 0.0 0.00 1.66 1.66 76 1012.4
20260509183704 65 40 0.0 0.0 0.00 1.66 1.66 75 1012.2
20260509183205 65 40 0.0 0.0 0.00 1.66 1.66 74 1012.2
20260509181704 65 40 0.0 0.0 0.00 1.66 1.66 69 1012.0
20260509181205 66 39 0.0 0.0 0.00 1.66 1.66 69 1011.8
20260509180704 66 39 0.0 0.0 0.00 1.66 1.66 68 1011.7
20260509180204 66 38 0.0 0.0 0.00 1.66 1.66 69 1011.6
20260509174705 65 38 0.0 0.0 0.00 1.66 1.66 69 1011.6
20260509173704 65 13 1.7 4.3 0.00 1.66 1.66 71 1011.6
20260509171704 66 5 1.7 2.6 0.00 1.66 1.66 68 1011.7
20260509171205 66 5 1.7 2.6 0.00 1.66 1.66 67 1011.7
20260509170705 66 315 0.9 2.6 0.00 1.66 1.66 67 1011.8
20260509170204 66 313 0.9 2.6 0.00 1.66 1.66 66 1011.8
20260509164704 67 312 1.7 2.6 0.00 1.66 1.66 65 1011.7
20260509163704 67 0 0.9 2.6 0.00 1.66 1.66 65 1011.7
20260509163204 67 352 0.9 4.3 0.00 1.66 1.66 64 1011.7